Location: Bertry
(50.0872°N, 3.4430°E)
Time: 04:51:04
(UTC+00:00)

Daily predictions for brighter satellites

Satellite Brightness Start Highest point End
(mag) Time Altitude Azimuth Time Altitude Azimuth Time Altitude Azimuth
Cosmos 158 Rocket 4.4 00:05:02 49° WNW 00:05:16 49° WNW 00:10:11 10° NNE
Cosmos 1461 4.4 00:01:27 10° NW 00:03:29 29° NW 00:03:29 29° NW
Cosmos 1844 Rocket 4.3 00:02:11 10° NW 00:05:29 20° W 00:05:29 20° W
Lacrosse 4 Rocket 4.2 00:04:40 10° WNW 00:06:41 13° NNW 00:08:40 10° N
Cosmos 1943 Rocket 3.6 00:01:32 10° NNW 00:06:42 34° NE 00:10:24 17° ESE
SL-16 R/B 3.7 00:06:04 21° W 00:08:49 31° NW 00:13:51 10° NNE
ATLAS 5 CENTAUR R/B 3.6 00:06:32 10° NNW 00:10:31 30° NNE 00:15:19 10° E
RESURS DK-1 4.1 00:13:30 25° ENE 00:13:30 25° ENE 00:15:39 10° NE
Cosmos 972 Rocket 4.2 00:12:33 59° E 00:12:33 59° E 00:17:07 10° NNE
Okean 3 Rocket 4.5 00:11:14 10° N 00:15:30 43° ENE 00:15:30 43° ENE
Cosmos 1867 3.8 00:10:43 10° NW 00:15:26 58° W 00:15:26 58° W
NOSS 2-2 (D) 3.9 00:14:06 10° NW 00:18:12 70° NE 00:18:12 70° NE
USA 32 4.1 00:20:05 65° W 00:20:05 65° W 00:25:17 10° N
Cosmos 2344 4.0 00:20:18 10° NW 00:28:29 81° NE 00:39:43 10° SE
Tsikada Rocket 4.0 00:30:35 60° WSW 00:31:27 68° WNW 00:37:36 10° N
USA 215 4.1 00:28:15 10° ENE 00:34:03 33° SE 00:34:07 33° SE
Cosmos 1536 4.2 00:32:07 10° N 00:35:23 32° ENE 00:35:23 32° ENE
Lacrosse 5 2.9 00:35:37 21° WNW 00:38:38 44° NNW 00:43:33 10° ENE
Meteor 1-11 Rocket 4.4 00:35:26 10° N 00:40:47 47° ENE 00:42:35 35° ESE
NOSS 2-3 (C) 4.4 00:37:28 10° NW 00:43:03 80° SW 00:45:10 48° SSE
ATLAS 3B R/B 4.3 00:36:30 10° NW 00:43:43 40° NNE 00:51:01 10° E
NOSS 0 Rocket 4.1 00:45:55 53° SE 00:46:45 58° ESE 00:52:47 10° NE
NOSS 2-3 (D) 4.4 00:42:33 10° NW 00:48:07 78° SW 00:50:20 46° SSE
NOSS 3-4 (A) 4.1 00:51:31 29° W 00:54:02 46° NNW 01:00:06 10° NE
NOSS 3-4 (C) 4.1 00:51:35 29° W 00:54:05 46° NNW 01:00:09 10° NE
Cosmos 1766 Rocket 4.5 00:52:44 10° NNW 00:55:54 38° WNW 00:55:54 38° WNW
Gbstr 26 Del rocket 3.1 00:57:32 71° NE 00:57:32 71° NE 01:01:15 10° ENE
H-2A R/B 3.8 00:54:14 10° N 00:57:30 22° WNW 00:57:39 22° WNW
Cosmos 2369 Rocket 4.4 00:54:55 10° NNW 00:59:24 24° NE 01:03:51 10° E
Cosmos 2237 Rocket 2.5 00:59:39 48° SE 01:00:26 51° ESE 01:05:57 10° NE
IDEFIX/ARIANE 42P 3.6 00:57:50 10° NNE 01:02:39 37° E 01:03:55 32° SE
Cosmos 1980 3.9 01:02:36 52° SE 01:03:23 57° ESE 01:08:55 10° NE
NOSS 2-2 (C) 4.4 01:01:42 10° NW 01:04:40 44° WNW 01:04:40 44° WNW
CZ-2D R/B 3.4 01:03:39 10° NNE 01:08:32 33° E 01:10:23 27° SE
USA 267 3.3 01:03:51 10° ESE 01:10:21 76° NNE 01:16:53 10° WNW
USA 308 4.3 01:14:03 26° E 01:14:03 26° E 01:16:04 10° ENE
Cosmos 2360 Rocket 4.0 01:10:54 15° W 01:14:04 23° NW 01:18:32 10° NNE
COSMOS 2428 2.9 01:13:37 49° WSW 01:14:52 60° NW 01:20:31 10° NNE
Meteor 2-9 Rocket 4.4 01:10:06 10° N 01:15:32 66° ENE 01:17:36 38° SE
Cosmos 1743 Rocket 3.9 01:12:26 10° N 01:16:42 58° ENE 01:17:16 53° ESE
Meteor 2-6 Rocket 4.4 01:15:50 54° SW 01:17:01 68° WNW 01:22:53 10° N
Cosmos 1726 3.5 01:16:14 10° NNW 01:17:55 28° NNW 01:17:55 28° NNW
Resurs 1-4 Rocket 2.9 01:15:34 10° NNE 01:20:35 42° E 01:22:17 33° SE
Cosmos 2322 4.4 01:21:01 36° W 01:22:42 46° NW 01:28:13 10° NNE
Cosmos 2219 Rocket 3.5 01:23:12 23° W 01:25:28 30° NW 01:30:23 10° NNE
BREEZE-M DEB (TANK) 4.3 01:27:27 14° E 01:27:27 14° E 01:27:47 10° E
IRIDIUM 104 4.3 01:21:03 10° N 01:26:15 66° W 01:26:53 59° SW
Cosmos 2221 3.9 01:26:50 26° WNW 01:26:50 26° WNW 01:30:19 10° NNW
Cosmos 2322 Rocket 4.5 01:27:21 10° WNW 01:30:53 17° NNW 01:34:25 10° N
Cosmos 2278 Rocket 2.6 01:27:11 10° NW 01:32:30 43° WSW 01:32:30 43° WSW
IRIDIUM 114 4.5 01:30:15 10° NNW 01:35:22 55° W 01:36:02 51° WSW
USA 290 3.9 01:36:13 10° N 01:39:14 33° ENE 01:40:17 26° E
COBE Rocket 4.1 01:37:23 10° NNE 01:41:58 58° E 01:43:15 42° SSE
Meteor 2-10 4.1 01:36:14 10° NNW 01:41:58 86° W 01:44:15 39° S
Cosmos 1420 Rocket 3.9 01:36:46 10° NNW 01:42:04 85° WSW 01:44:11 38° SSE
Cosmos 2333 Rocket 4.3 01:38:15 10° W 01:42:10 19° NW 01:46:09 10° N
Cosmos 1680 Rocket 3.6 01:42:34 46° S 01:44:05 68° ESE 01:49:23 10° NNE
ADEOS II 2.9 01:39:53 10° NNE 01:44:53 43° E 01:47:24 26° SSE
RESURS DK-1 3.5 01:49:06 29° WNW 01:49:43 31° NW 01:53:23 10° NNE
Meteor 1-28 Rocket 4.1 01:49:06 30° SE 01:50:29 45° ENE 01:54:00 10° N
Cosmos 1943 Rocket 2.3 01:45:11 10° NW 01:50:41 52° WSW 01:51:51 45° SSW
Nadezhda 4 Rocket 4.0 01:50:48 41° SW 01:52:51 64° WNW 01:58:59 10° N
ATLAS 2AS CENTAUR R/B 3.1 01:49:36 33° S 01:52:54 60° SE 01:59:54 10° NE
ATLAS 5 CENTAUR R/B 1.9 01:50:00 10° NW 01:54:50 76° SW 02:00:53 10° SE
Cosmos 1408 Rocket 4.4 01:51:22 10° NNW 01:54:59 34° W 01:54:59 34° W
Cosmos 2056 Rocket 3.5 01:50:20 10° NNW 01:55:46 79° WSW 01:58:37 29° SSE
Cosmos 1428 Rocket 4.4 01:53:46 37° SSW 01:56:27 85° W 02:02:43 10° N
SL-16 R/B 2.9 01:54:58 28° SSE 01:57:31 46° ESE 02:02:55 10° NE
Sich 1 3.2 01:57:15 10° NNW 02:01:21 48° W 02:01:28 48° W
Cosmos 1340 Rocket 3.1 02:01:32 44° SSE 02:02:29 59° E 02:06:22 10° NNE
GP-B 3.0 01:58:09 10° N 02:02:35 87° E 02:03:57 45° S
CZ-2C R/B 2.5 02:00:14 32° S 02:02:47 77° WSW 02:08:06 10° NNW
Meteor 1-27 Rocket 3.7 02:01:02 40° SSW 02:03:07 74° WNW 02:08:45 10° N
GEOS 3 Rocket 3.5 01:59:50 10° SE 02:05:12 79° SW 02:10:32 10° NW
Okean 1 3.6 02:05:34 44° W 02:05:39 44° WNW 02:09:19 10° N
Cosmos 1624 Rocket 3.9 02:00:30 10° NNW 02:05:42 67° WSW 02:08:03 32° S
SL-16 R/B 2.6 02:00:27 10° SSE 02:06:39 79° ENE 02:12:55 10° NNW
ALOS 3.5 02:02:59 10° NNE 02:07:16 36° E 02:10:17 17° SSE
NPP 3.7 02:04:39 10° N 02:10:02 69° WNW 02:12:10 37° SW
Cosmos 1340 2.4 02:06:54 10° N 02:10:21 79° ENE 02:10:59 56° SSE
NOSS 3-1 (A) 4.2 02:03:21 10° NW 02:10:26 78° NE 02:19:09 10° SE
Cosmos 1536 4.4 02:08:26 10° NW 02:10:40 21° WNW 02:10:40 21° WNW
Cosmos 1805 2.9 02:08:55 10° NNW 02:12:38 82° W 02:13:21 56° S
Cosmos 1733 3.7 02:10:34 10° NNW 02:13:33 39° WNW 02:13:33 39° WNW
H-2A R/B 4.0 02:13:06 10° N 02:16:56 40° WNW 02:17:40 36° W
USA 215 3.2 02:11:01 10° ENE 02:17:36 88° SE 02:21:28 27° WSW
Cosmos 1805 Rocket 4.3 02:14:03 10° NNW 02:17:57 33° W 02:18:06 33° W
Intercosmos 25 Rocket 4.0 02:15:38 10° N 02:19:32 73° E 02:25:34 10° SSE
COSMOS 2441 4.3 02:17:21 10° NNE 02:22:15 84° WNW 02:24:29 33° SSW
Lacrosse 5 3.2 02:17:38 10° WNW 02:22:28 40° N 02:27:17 10° ENE
Cosmos 1666 Rocket 3.5 02:18:21 10° NNW 02:22:49 81° W 02:25:08 28° S
Cosmos 923 Rocket 4.5 02:20:52 32° WSW 02:22:57 49° WNW 02:28:07 10° NNE
Cosmos 1553 Rocket 4.0 02:17:27 10° N 02:23:44 83° E 02:29:53 10° S
NOSS 3-1 (C) 4.1 02:21:12 10° NW 02:28:21 60° SW 02:36:58 10° SSE
ATLAS 3B R/B 3.0 02:27:30 10° NW 02:35:22 88° SW 02:43:11 10° SE
MSX 4.1 02:29:54 10° N 02:35:31 53° WNW 02:38:35 26° SW
MINOTAUR IV R/B 4.5 02:34:04 10° NNW 02:38:33 88° WSW 02:42:58 10° SSE
Cosmos 1656 Rocket 3.5 02:34:17 10° NNW 02:39:42 74° WSW 02:45:05 10° SSE
Cosmos 1470 4.4 02:37:37 10° N 02:41:08 34° ENE 02:44:35 10° SE
Cosmos 2026 Rocket 4.3 02:37:38 25° SW 02:41:15 54° WNW 02:47:32 10° N
IDEFIX/ARIANE 42P 3.3 02:37:25 10° N 02:42:12 38° WNW 02:44:41 24° WSW
Cosmos 1328 Rocket 3.5 02:41:11 26° SSW 02:43:39 80° W 02:48:07 10° N
Gbstr 26 Del rocket 2.9 02:39:47 11° WNW 02:43:55 78° NNE 02:47:44 10° E
Cosmos 1626 1.8 02:42:32 32° S 02:43:56 79° E 02:47:14 10° NNE
Cosmos 2369 Rocket 2.1 02:38:30 10° NNW 02:44:08 85° WSW 02:49:43 10° SSE
USA 308 2.9 02:42:30 27° W 02:44:23 62° NNW 02:48:17 10° ENE
Cosmos 2237 Rocket 3.2 02:41:27 20° W 02:44:43 35° NW 02:49:56 10° NNE
Cosmos 1066 Rocket 4.5 02:40:39 13° S 02:45:29 66° E 02:51:03 10° NNE
Cosmos 1092 Rocket 4.3 02:42:40 24° SW 02:46:07 49° WNW 02:52:08 10° N
CZ-2C R/B 3.3 02:43:09 10° N 02:48:23 63° WNW 02:51:58 22° SW
CZ-2D R/B 2.7 02:43:33 10° N 02:48:39 44° WNW 02:51:41 23° SW
Cosmos 1151 Rocket 3.9 02:47:21 26° WSW 02:48:52 33° WNW 02:52:51 10° N
Cosmos 1975 3.3 02:45:31 10° NNW 02:49:08 39° W 02:50:23 30° SW
Cosmos 921 Rocket 3.4 02:48:29 28° SW 02:50:29 50° WNW 02:54:49 10° NNE
SAR-Lupe-1 4.1 02:48:47 10° N 02:52:22 64° WNW 02:54:03 29° SW
Cosmos 1633 Rocket 3.3 02:48:10 10° NNW 02:52:23 49° W 02:55:02 21° SSW
Cosmos 2297 3.8 02:47:03 10° NW 02:52:41 58° WSW 02:58:18 10° S
USA 267 3.5 02:47:28 10° SSE 02:53:39 45° SW 02:59:53 10° WNW
AQUA 3.9 02:49:07 10° N 02:53:47 60° WNW 02:56:41 22° SW
SAR-Lupe-4 3.8 02:53:03 10° N 02:56:33 54° WNW 02:58:13 27° SW
Cosmos 44 4.3 02:53:42 10° NNW 02:58:38 49° NE 03:03:15 10° ESE
Resurs 1-4 Rocket 3.0 02:55:34 10° N 03:00:18 34° WNW 03:03:21 19° WSW
Cosmos 1766 3.0 03:00:16 10° NNW 03:03:56 64° W 03:07:19 12° S
Cosmos 494 Rocket 4.0 03:02:00 20° SW 03:05:37 70° WNW 03:10:45 10° NNE
Iridium 51 3.8 03:05:13 14° S 03:08:01 88° E 03:11:30 10° N
Meteor 2-4 Rocket 4.0 03:04:17 19° SW 03:08:08 51° WNW 03:13:40 10° N
Cosmos 1943 3.9 03:03:56 10° S 03:09:27 53° ESE 03:14:59 10° NE
FENGYUN 3A 4.1 03:05:12 10° N 03:10:24 48° WNW 03:14:21 17° SW
USA 290 3.9 03:11:13 10° WNW 03:13:01 17° W 03:13:01 17° W
Cosmos 2263 4.1 03:08:07 10° NNW 03:13:44 69° WSW 03:19:21 10° SSE
Cosmos 1048 Rocket 4.0 03:09:34 16° SSW 03:13:52 80° WNW 03:19:08 10° NNE
UNK 4.1 03:10:15 11° S 03:14:26 42° W 03:18:51 10° NNW
Thor Agena Rocket 4.4 03:09:39 10° NNE 03:14:34 49° E 03:19:28 10° S
CZ-2C R/B 3.0 03:15:14 10° NNE 03:20:23 62° ESE 03:25:25 10° S
H-2A R/B 4.3 03:17:41 10° NE 03:21:46 24° E 03:25:55 10° SE
ADEOS II 3.0 03:19:45 10° N 03:24:24 33° WNW 03:28:17 14° WSW
PAYLOAD A 4.5 03:20:11 10° NNE 03:24:57 57° E 03:29:35 10° S
EO 1 Delta rocket 4.3 03:21:31 10° N 03:25:57 47° WNW 03:30:32 11° SW
Cosmos 883 Rocket 4.4 03:21:42 10° N 03:27:51 82° W 03:33:59 10° S
Cosmos 1707 2.7 03:28:04 10° S 03:31:45 82° E 03:35:28 10° NNE
Cosmos 1302 Rocket 4.0 03:27:01 10° NNW 03:32:15 89° ENE 03:37:26 10° SSE
IRS-1D 3.9 03:27:28 10° NNE 03:32:38 68° ESE 03:37:51 10° S
CZ-4 R/B 3.8 03:28:54 10° N 03:33:36 71° WNW 03:38:13 10° SSW
Cosmos 1110 Rocket 4.4 03:30:42 10° NW 03:35:36 40° WSW 03:40:31 10° S
Cosmos 1842 3.1 03:32:22 10° SSW 03:36:05 66° WNW 03:39:50 10° N
YAOGAN 6 2.4 03:34:49 10° NNE 03:38:07 79° ESE 03:41:26 10° S
ATLAS 5 CENTAUR R/B 3.6 03:35:07 10° WNW 03:38:25 17° WSW 03:42:04 10° SSW
Cosmos 2266 Rocket 4.0 03:33:25 10° SSW 03:39:24 64° WNW 03:45:26 10° N
Cosmos 1603 4.2 03:35:51 10° SSW 03:41:21 61° ESE 03:46:56 10° NE
S3M 4.2 03:35:26 10° NNW 03:41:24 51° W 03:47:25 10° SSW
SL-16 R/B 3.0 03:36:50 12° WSW 03:41:45 38° NW 03:47:03 10° NNE
SL-08 ROCKET BODY 4.4 03:37:02 10° SSW 03:42:58 69° WNW 03:49:04 10° N
CZ-2C R/B 4.4 03:41:43 10° WSW 03:43:54 13° W 03:46:08 10° WNW
Cosmos 1452 Rocket 4.2 03:39:17 10° NW 03:43:58 33° WSW 03:48:37 10° SSW
ATLAS 2AS CENTAUR R/B 3.4 03:37:01 10° WSW 03:44:05 48° NW 03:50:54 10° NE
ALOS 3.2 03:40:20 10° N 03:44:26 32° WNW 03:48:31 10° SW
Cosmos 1515 Rocket 4.1 03:40:34 10° SW 03:44:47 41° WNW 03:49:00 10° N
Cosmos 1869 Rocket 3.5 03:42:21 10° NNW 03:46:41 69° W 03:50:57 10° S
Envisat 3.1 03:44:17 10° N 03:49:18 61° WNW 03:54:17 10° SSW
Cosmos 1758 4.4 03:46:14 10° N 03:50:02 48° ENE 03:53:47 10° SSE
SL-16 R/B 3.7 03:46:19 10° SW 03:50:55 21° W 03:55:34 10° NW
USA 215 3.9 03:54:04 10° ENE 04:00:24 54° NNW 04:06:43 10° W
Cosmos 2228 Rocket 3.5 03:59:58 10° S 04:04:18 66° E 04:08:39 10° NNE
Meteor 1-22 Rocket 4.1 03:58:52 10° NNW 04:04:25 73° W 04:09:45 10° S
Lacrosse 5 2.1 04:00:52 10° WNW 04:06:00 78° NNE 04:11:08 10° ESE
CZ-3 R/B 4.4 03:53:20 10° SW 04:10:35 24° S 04:17:57 10° SE
